Погода в Екатериновке

Россия / Липецкая область     52°33′23″N   38°41′48″E
темп.,
°C
ветер,
м/с
пор.,
м/с
влажн.,
%
обл.,
%
осадки,
мм/ч
давл.,
гПа
погр.,
м
12 апреля, пн
пн1200:00+7св5136497 0.0 1029348
03:00+6св51275100 0.0 1029367
06:00+5всв51189100 0.1 1029323
09:00+9всв6983100 0.1 1028381
12:00+15в696485 0.0 1026666
15:00+19в794870 0.0 10251034
18:00+19вюв6124525 0.0 1025383
21:00+14вюв514615 0.0 1026270
13 апреля, вт
вт1300:00+12вюв5136866 0.0 1026254
03:00+10вюв4107196 0.0 1026173
06:00+8вюв4107349 0.0 1026163
09:00+14юв6115462 0.0 1026413
12:00+19юв69379 0.0 10251171
15:00+21юв71028100 0.0 10241831
18:00+19юв611360 0.0 1023472
21:00+14вюв514485 0.0 1024321
14 апреля, ср
ср1400:00+12вюв4135873 0.0 1023250
03:00+10вюв41063100 0.0 1023181
06:00+9вюв386885 0.0 1022139
09:00+13юв5954100 0.0 1022367
12:00+18юв693498 0.0 10201290
15:00+20юв782876 0.0 10192092
18:00+18юв4733100 0.0 1018198
21:00+14юв334487 0.0 101844
15 апреля, чт
чт1500:00+12юв3756100 0.0 1018110
03:00+10юв2362100 0.0 101825
06:00+9вюв2264100 0.0 101824
09:00+14вюв355383 0.0 1017278
12:00+18вюв5639100 0.0 10161214
15:00+20вюв5633100 0.0 10142281
18:00+18вюв474499 0.0 1014249
21:00+14в225293 0.0 101314
16 апреля, пт
пт1600:00+13вюв3654100 0.0 101396
03:00+13ююв2261100 0.0 101330
06:00+11вюв227799 0.2 101230
09:00+12юв247575 0.3 1013143
12:00+17юв4550100 1.3 10131477
15:00+12юв2485100 5.4 1014218
18:00+11ссв348586 4.8 1013147
21:00+10св51093100 5.9 1015351